Location: Unspecified
(42.3650°N, 71.1030°W)
Time: 05:12:57
(UTC+00:00)

Explorer 11/Cluster Stage 4 - Pass Details

Date: 22 June 2024
Orbit: 465 x 1216 km, 28.8° (Epoch: 13 July)

Event Time Altitude Azimuth Distance (km) Brightness Sun altitude
Rises 23:33:31 0° 209° (SSW) 4,035 10.3 7.5°
Reaches altitude 10° 23:37:44 10° 188° (S) 3,134 9.5 6.8°
Maximum altitude 23:41:58 15° 156° (SSE) 2,761 9.0 6.1°
Drops below altitude 10° 23:46:12 10° 124° (ESE) 3,135 9.0 5.4°
Sets 23:50:24 0° 103° (ESE) 4,037 9.6 4.7°
